Regional Weather Roundup
Issued by NWS Jackson, KY

Home | Current Version | Previous Version | Graphics & Text | Print | Product List | Glossary Off
Versions: 1 2 3 4 5 6 7 8 9 10 11 12 13 14 15 16 17 18 19 20 21 22 23 24 25 26 27 28 29 30 31 32 33 34 35 36 37 38 39 40 41 42 43 44 45 46 47 48 49 50

000
ASUS43 KJKL 160719
RWRJKL

EAST KENTUCKY HOURLY WEATHER ROUNDUP
NATIONAL WEATHER SERVICE JACKSON KY
300 AM EDT TUE SEP 16 2014

NOTE: "FAIR" INDICATES FEW OR NO CLOUDS BELOW 12,000 FEET WITH
NO SIGNIFICANT WEATHER AND/OR OBSTRUCTIONS TO VISIBILITY.

* THESE REPORTS ARE NOT UNDER NWS QUALITY CONTROL AND MAY NOT
  REPORT WEATHER SUCH AS PRECIPITATION AND FOG.

KYZ079-080-083-085-087-088-110-112-115-119-120-160800
...EASTERN KENTUCKY...

CITY           SKY/WX    TMP DP  RH WIND       PRES   REMARKS
JACKSON        CLOUDY    63  60  90 CALM      30.10S
LONDON         CLOUDY    65  61  87 S5        30.10F
MONTICELLO*    PTCLDY    65  64  96 CALM      30.12F
WILLIAMSBURG*  CLOUDY    63  63 100 CALM      30.10F
MIDDLESBORO*   CLOUDY    62  62  99 CALM      30.12S
HARLAN APT*    CLOUDY    61  61 100 MISG      30.12F VSB<1/4
HAZARD APT*    CLOUDY    63  63 100 CALM      30.10F
BLACK MTN*       N/A     57  57 100 SW6         N/A
PIKEVILLE APT* CLOUDY    61  61 100 CALM      30.11R FOG
BIG SANDY*     LGT RAIN  62  61  97 CALM      30.11S
MOREHEAD APT*  CLOUDY    61  61 100 CALM      30.11F
ASHLAND*       MOCLDY    63  55  77 CALM      30.08F
$$

KYZ035-036-041-042-044-050-067-078-099-160800
...CENTRAL KENTUCKY...

CITY           SKY/WX    TMP DP  RH WIND       PRES   REMARKS
MT STERLING*   CLOUDY    63  63 100 CALM      30.12S
FLEMING/MASON* CLOUDY    59  59 100 NE5       30.11F
DANVILLE*      CLOUDY    64  59  82 W7        30.10S
RICHMOND*      CLOUDY    63  59  88 CALM      30.09S
LEXINGTON      CLOUDY    65  61  87 CALM      30.10R
FRANKFORT      CLOUDY    62  60  93 CALM      30.08F
$$

KYZ091>093-OHZ055-061-077-WVZ005-015-034-035-042-160800
...SOUTHERN OHIO/WEST VIRGINIA...

CITY           SKY/WX    TMP DP  RH WIND       PRES   REMARKS
COVINGTON      DRIZZLE   59  56  89 NE5       30.10S
COLUMBUS       CLOUDY    59  54  82 N3        30.09F
DAYTON         CLOUDY    58  56  93 N6        30.11S FOG
WILMINGTON     RAIN      56  54  93 N3        30.10F FOG
HUNTINGTON     CLOUDY    61  60  97 CALM      30.09S
CHARLESTON     CLOUDY    64  61  90 W5        30.10S
PINEVILLE*     LGT RAIN  61  61 100 MISG      30.16S
BECKLEY        PTCLDY    59  54  83 CALM      30.13S
BLUEFIELD      PTCLDY    63  59  87 W8        30.14S
$$

VAZ002-007-008-TNZ017-027-036-066-071-160800
...SOUTHWEST VIRGINIA/EAST TENNESSEE...

CITY           SKY/WX    TMP DP  RH WIND       PRES   REMARKS
WISE*          CLOUDY    61  61 100 SW8       30.15F
JONESVILLE*    FOG       64  64 100 CALM      30.14F VSB 3/4
ABINGDON*      CLOUDY    64  64 100 W5        30.13S FOG
BRISTOL        PTCLDY    64  61  90 CALM      30.11F FOG
KNOXVILLE      CLOUDY    68  68 100 W5        30.10F FOG
OAK RIDGE      CLOUDY    68  66  93 CALM      30.11F
CROSSVILLE     CLOUDY    68  65  90 CALM      30.15F
NASHVILLE      CLOUDY    66  64  93 CALM      30.11S
$$

...KEY TO REMARKS...
VSB - VISIBILITY IN MILES
WCI - WIND CHILL INDEX
HX  - HEAT INDEX

$$



USA.gov is the U.S. government's official web portal to all federal, state and local government web resources and services.